Hourly Weather Kailahun

Today, 2 March, Tuesday

Time Temperature Precipitation Wind Pressure Humidity
00:00 +23°C° 0 mm 0 mps 729 mmHg 87%
01:00 +23°C° 0 mm 0 mps 729 mmHg 91%
02:00 +22°C° 0 mm 0 mps 728 mmHg 95%
03:00 +22°C° 0 mm 0 mps 728 mmHg 96%
04:00 +22°C° 0 mm 0 mps 728 mmHg 97%
05:00 +22°C° 0 mm 0 mps 728 mmHg 97%
06:00 +23°C° 0 mm 0 mps 729 mmHg 91%
07:00 +24°C° 0 mm 0 mps 730 mmHg 86%
08:00 +27°C° 0 mm 1 mps 730 mmHg 81%
09:00 +30°C° 0 mm 1 mps 730 mmHg 69%
10:00 +31°C° 0 mm 0 mps 730 mmHg 57%
11:00 +34°C° 0 mm 0 mps 730 mmHg 46%
12:00 +35°C° 0 mm 0 mps 729 mmHg 40%
13:00 +36°C° 0 mm 0 mps 729 mmHg 35%
14:00 +37°C° 0 mm 0 mps 728 mmHg 29%
15:00 +39°C° 0 mm 1 mps 728 mmHg 32%
16:00 +37°C° 0 mm 1 mps 728 mmHg 35%
17:00 +36°C° 0 mm 2 mps 728 mmHg 39%
18:00 +33°C° 0 mm 1 mps 728 mmHg 49%
19:00 +30°C° 0 mm 1 mps 729 mmHg 59%
20:00 +28°C° 0 mm 1 mps 729 mmHg 70%
21:00 +27°C° 0 mm 1 mps 729 mmHg 77%
22:00 +26°C° 0 mm 1 mps 730 mmHg 84%
23:00 +25°C° 0 mm 1 mps 730 mmHg 91%

Tomorrow, 3 March, Wednesday

Time Temperature Precipitation Wind Pressure Humidity
00:00 +25°C° 0 mm 1 mps 730 mmHg 92%
01:00 +25°C° 0 mm 1 mps 730 mmHg 93%
02:00 +25°C° 0 mm 1 mps 729 mmHg 94%
03:00 +23°C° 0 mm 0 mps 729 mmHg 94%
04:00 +23°C° 0 mm 0 mps 730 mmHg 93%
05:00 +23°C° 0 mm 0 mps 730 mmHg 93%
06:00 +23°C° 0 mm 0 mps 730 mmHg 91%
07:00 +24°C° 0 mm 0 mps 731 mmHg 89%
08:00 +26°C° 0 mm 1 mps 731 mmHg 88%
09:00 +27°C° 0.1 mm 1 mps 731 mmHg 82%
10:00 +28°C° 0.1 mm 1 mps 731 mmHg 76%
11:00 +29°C° 0.1 mm 1 mps 731 mmHg 71%
12:00 +30°C° 0 mm 1 mps 731 mmHg 68%
13:00 +30°C° 0 mm 1 mps 730 mmHg 66%
14:00 +31°C° 0 mm 1 mps 729 mmHg 63%
15:00 +31°C° 0 mm 1 mps 729 mmHg 62%
16:00 +31°C° 0 mm 1 mps 729 mmHg 61%
17:00 +32°C° 0 mm 1 mps 729 mmHg 60%
18:00 +30°C° 0 mm 1 mps 729 mmHg 67%
19:00 +28°C° 0 mm 1 mps 730 mmHg 74%
20:00 +27°C° 0 mm 1 mps 730 mmHg 81%
21:00 +26°C° 0 mm 1 mps 730 mmHg 85%
22:00 +25°C° 0 mm 1 mps 730 mmHg 90%
23:00 +25°C° 0 mm 1 mps 731 mmHg 94%

Day after tomorrow, 4 March, Thursday

Time Temperature Precipitation Wind Pressure Humidity
00:00 +24°C° 0 mm 1 mps 730 mmHg 96%
01:00 +24°C° 0 mm 1 mps 730 mmHg 97%
02:00 +24°C° 0 mm 1 mps 729 mmHg 99%
03:00 +22°C° 0 mm 0 mps 729 mmHg 99%
04:00 +22°C° 0 mm 0 mps 729 mmHg 99%
05:00 +22°C° 0 mm 0 mps 729 mmHg 99%
06:00 +25°C° 0 mm 1 mps 730 mmHg 92%
07:00 +26°C° 0 mm 1 mps 730 mmHg 85%
08:00 +27°C° 0 mm 1 mps 731 mmHg 79%
09:00 +29°C° 0 mm 1 mps 731 mmHg 71%
10:00 +31°C° 0 mm 1 mps 731 mmHg 63%
11:00 +33°C° 0 mm 1 mps 731 mmHg 55%
12:00 +34°C° 0.1 mm 1 mps 730 mmHg 52%
13:00 +35°C° 0.1 mm 1 mps 729 mmHg 48%
14:00 +36°C° 0.1 mm 1 mps 728 mmHg 45%
15:00 +36°C° 0.1 mm 2 mps 728 mmHg 46%
16:00 +35°C° 0.1 mm 2 mps 728 mmHg 48%
17:00 +35°C° 0.1 mm 2 mps 727 mmHg 50%
18:00 +32°C° 0 mm 2 mps 728 mmHg 60%
19:00 +29°C° 0 mm 1 mps 729 mmHg 70%
20:00 +27°C° 0 mm 1 mps 729 mmHg 79%
21:00 +27°C° 0 mm 1 mps 729 mmHg 84%
22:00 +26°C° 0 mm 1 mps 729 mmHg 88%
23:00 +25°C° 0 mm 1 mps 730 mmHg 93%

5 March, Friday

Time Temperature Precipitation Wind Pressure Humidity
00:00 +25°C° 0 mm 1 mps 729 mmHg 94%
01:00 +25°C° 0 mm 1 mps 729 mmHg 96%
02:00 +24°C° 0 mm 1 mps 728 mmHg 98%
03:00 +24°C° 0 mm 1 mps 728 mmHg 97%
04:00 +24°C° 0 mm 1 mps 728 mmHg 96%
05:00 +24°C° 0 mm 1 mps 728 mmHg 96%
06:00 +25°C° 0 mm 1 mps 729 mmHg 92%
07:00 +25°C° 0 mm 1 mps 730 mmHg 87%
08:00 +26°C° 0 mm 1 mps 730 mmHg 83%
09:00 +27°C° 0 mm 1 mps 730 mmHg 76%
10:00 +29°C° 0 mm 2 mps 730 mmHg 70%
11:00 +30°C° 0 mm 2 mps 730 mmHg 64%
12:00 +32°C° 0 mm 2 mps 729 mmHg 58%
13:00 +34°C° 0 mm 2 mps 729 mmHg 52%
14:00 +36°C° 0 mm 2 mps 728 mmHg 46%
15:00 +35°C° 0.1 mm 2 mps 728 mmHg 49%
16:00 +34°C° 0.1 mm 2 mps 728 mmHg 53%
17:00 +32°C° 0.1 mm 2 mps 728 mmHg 57%
18:00 +30°C° 0.1 mm 2 mps 729 mmHg 66%
19:00 +28°C° 0.1 mm 2 mps 729 mmHg 75%
20:00 +26°C° 0.1 mm 1 mps 730 mmHg 84%
21:00 +26°C° 0 mm 1 mps 730 mmHg 87%
22:00 +25°C° 0 mm 1 mps 730 mmHg 90%
23:00 +25°C° 0 mm 1 mps 730 mmHg 94%

6 March, Saturday

Time Temperature Precipitation Wind Pressure Humidity
00:00 +24°C° 0 mm 1 mps 730 mmHg 95%
01:00 +24°C° 0 mm 1 mps 730 mmHg 97%
02:00 +22°C° 0 mm 0 mps 729 mmHg 99%
03:00 +22°C° 0 mm 0 mps 730 mmHg 98%
04:00 +22°C° 0 mm 0 mps 730 mmHg 97%
05:00 +24°C° 0 mm 1 mps 730 mmHg 97%
06:00 +25°C° 0 mm 1 mps 730 mmHg 92%
07:00 +25°C° 0 mm 1 mps 731 mmHg 87%
08:00 +26°C° 0 mm 1 mps 732 mmHg 82%
09:00 +27°C° 0 mm 1 mps 732 mmHg 77%
10:00 +28°C° 0 mm 1 mps 731 mmHg 71%
11:00 +30°C° 0 mm 1 mps 731 mmHg 66%
12:00 +30°C° 0 mm 1 mps 731 mmHg 62%
13:00 +31°C° 0 mm 1 mps 730 mmHg 59%
14:00 +32°C° 0 mm 1 mps 729 mmHg 56%
15:00 +32°C° 0 mm 1 mps 729 mmHg 57%
16:00 +32°C° 0 mm 1 mps 729 mmHg 58%
17:00 +31°C° 0 mm 1 mps 729 mmHg 59%
18:00 +29°C° 0.5 mm 1 mps 730 mmHg 69%
19:00 +28°C° 0.5 mm 1 mps 731 mmHg 79%
20:00 +26°C° 0.5 mm 1 mps 731 mmHg 89%
21:00 +25°C° 0.8 mm 1 mps 732 mmHg 92%
22:00 +25°C° 0.8 mm 1 mps 732 mmHg 94%
23:00 +24°C° 0.8 mm 1 mps 732 mmHg 96%

7 March, Sunday

Time Temperature Precipitation Wind Pressure Humidity
00:00 +24°C° 0 mm 1 mps 732 mmHg 96%
01:00 +24°C° 0 mm 1 mps 732 mmHg 96%
02:00 +24°C° 0 mm 1 mps 731 mmHg 96%
03:00 +22°C° 0.1 mm 0 mps 731 mmHg 96%
04:00 +22°C° 0.1 mm 0 mps 732 mmHg 96%
05:00 +22°C° 0.1 mm 0 mps 732 mmHg 96%
06:00 +22°C° 0.2 mm 0 mps 732 mmHg 95%
07:00 +25°C° 0.2 mm 1 mps 732 mmHg 94%
08:00 +25°C° 0.2 mm 1 mps 733 mmHg 93%
09:00 +28°C° 0 mm 1 mps 733 mmHg 78%
10:00 +30°C° 0 mm 0 mps 733 mmHg 62%
11:00 +33°C° 0 mm 0 mps 733 mmHg 47%
12:00 +35°C° 0 mm 0 mps 732 mmHg 42%
13:00 +36°C° 0 mm 0 mps 731 mmHg 38%
14:00 +37°C° 0 mm 0 mps 730 mmHg 34%
15:00 +37°C° 0.2 mm 1 mps 730 mmHg 41%
16:00 +34°C° 0.2 mm 1 mps 730 mmHg 48%
17:00 +32°C° 0.2 mm 2 mps 729 mmHg 54%
18:00 +30°C° 3.8 mm 1 mps 730 mmHg 68%
19:00 +27°C° 3.8 mm 1 mps 730 mmHg 81%
20:00 +25°C° 3.8 mm 1 mps 731 mmHg 95%
21:00 +25°C° 0.3 mm 1 mps 731 mmHg 95%
22:00 +25°C° 0.3 mm 1 mps 731 mmHg 95%
23:00 +25°C° 0.3 mm 1 mps 731 mmHg 96%
Show more

We Need Your Consent

Meteoprog and our Service Providers may store and access personal data such as cookies, device identifiers or other similar technologies on your device and process such data to personalise content and ads, as well as provide social media features and to analyse the traffic.

  • Store and/or access information on your device

    Cookies, device identifiers or other information can be stored or accessed on your device for the purposes indicated above.

  • Personalised ads and content, ad and content measurement, audience insights, and products development

    Ads and content can be personalised based on a profile. More data can be added to better personalise ads and content. Ad and content performance can be measured. Insights about the audience who saw the ads and content can be derived. Such data can be used to develop or improve user’s experience, systems and software.

By clicking ‘I Agree’ you will allow the use of indicated cookies, device identifiers, web beacons or other similar technologies. Your settings can be changed in the browser on your device.

For certain purposes, legitimate interests may be relied on, rather than consent. You can read more about this in our Privacy and Cookie Policy.